Regional Weather Roundup
Issued by NWS

Home | Current Version | Previous Version | Text Only | Print | Product List | Glossary Off
Versions: 1 2 3 4 5 6 7 8 9 10 11 12 13 14 15 16 17 18 19 20 21 22 23 24 25 26 27 28 29 30 31 32 33 34 35 36 37 38 39 40 41 42 43 44 45 46 47 48 49 50

000
ASUS43 KTOP 250759
RWRKS

WEATHER ROUNDUP FOR KANSAS
NATIONAL WEATHER SERVICE GOODLAND KS
200 AM CST SAT NOV 25 2017

NOTE:  "FAIR" INDICATES FEW OR NO CLOUDS BELOW 12,000 FEET WITH NO
SIGNIFICANT WEATHER AND/OR OBSTRUCTIONS TO VISIBILITY.

KSZ001>006-013>018-027>032-041>047-250900-
NORTHWEST KANSAS

CITY           SKY/WX    TMP DP  RH WIND       PRES   REMARKS
GOODLAND       CLEAR     32  28  85 CALM      30.09F
HAYS           CLEAR     41  31  67 N10       30.08R
HILL CITY      CLOUDY    43  33  68 NW6       30.09F
RUSSELL        CLEAR     42  33  70 N5        30.06R
$$

KSZ061>065-074>080-084>089-250900-
SOUTHWEST KANSAS

CITY           SKY/WX    TMP DP  RH WIND       PRES   REMARKS
DODGE CITY     CLOUDY    50  36  58 NE9       30.06R
GARDEN CITY    PTCLDY    47  37  68 NE10      30.07R
GREAT BEND     CLEAR     44  34  67 N8        30.07R
LIBERAL        PTCLDY    45  36  70 N5        30.04R
$$

KSZ066>073-081>083-090>101-250900-
SOUTHEAST KANSAS

CITY           SKY/WX    TMP DP  RH WIND       PRES   REMARKS
CHANUTE        CLOUDY    56  38  50 N14       29.98R
COFFEYVILLE    CLOUDY    59  41  51 N12G20    29.95R
HUTCHINSON     CLEAR     53  35  50 NE9       30.03R
MEDICINE LODGE   N/A     57  41  55 N15G22    30.00R
NEWTON         CLOUDY    51  34  52 NE12      30.03R
PARSONS        CLOUDY    58  40  51 N12       29.97R
WICHITA INTL   CLOUDY    57  37  47 N14       30.01R
WICHITA JABRA  PTCLDY    53  36  52 N13       30.01R
WICHITA MCCONL CLOUDY    54  37  54 NE14G24   30.01R
WINFIELD       MOCLDY    56  42  59 N10       30.00R
$$

KSZ007>012-019>026-033>040-048>060-102>105-250900-
NORTHEAST KANSAS

CITY           SKY/WX    TMP DP  RH WIND       PRES   REMARKS
CONCORDIA      CLEAR     41  33  73 N3        30.04S
EMPORIA        MOCLDY    50  34  54 N13       30.01R
LAWRENCE       CLEAR     43  36  76 W5        30.02R
MANHATTAN      CLEAR     44  33  65 CALM      30.04R
OLATHE IND     PTCLDY    47  37  68 N12       30.01R
OLATHE EXE     PTCLDY    50  36  58 N12       29.99R
SALINA         CLEAR     45  34  65 N6        30.05R
TOPEKA BILLARD CLEAR     48  36  63 NW5       30.02R
TOPEKA FORBES  CLEAR     47  36  65 NW5       30.02R
$$



USA.gov is the U.S. government's official web portal to all federal, state and local government web resources and services.